{"data":{"norad_id":47240,"intl_designator":"2020-096A","name":"SXM-7","alt_names":[],"object_type":"PAYLOAD","status":"ACTIVE","operator":null,"country":"US","launch_date":"2020-12-13","launch_site_code":"AFETR","launch_vehicle":null,"mission":null,"orbit_class":"UNKNOWN","rcs_meters":null,"size_class":null,"mass_kg":null,"dimensions":null,"purposes":["comms"],"wikipedia_slug":null,"has_3d_model":false,"image_url":null,"decayed_at":null,"tle_current":{"epoch":"2026-05-25T02:59:06.160704Z","epoch_age_seconds":67793,"freshness":"FRESH","line1":"1 47240U 20096A   26145.12437686 -.00000208  00000+0  00000+0 0  9998","line2":"2 47240   0.0410 114.6172 0004099  11.2626  76.4604  1.00272274  7218","mean_motion":1.00272274,"eccentricity":0.0004099,"inclination_deg":0.041,"raan_deg":114.6172,"arg_perigee_deg":11.2626,"mean_anomaly_deg":76.4604,"bstar":0,"rev_number":721,"period_min":1436.0899005841,"perigee_km":35769.174609856,"apogee_km":35803.741144737,"semimajor_km":42164.594877297,"source":"CELESTRAK","updated_at":"2026-05-25T13:38:14.097770Z"}}}